Project,Study,Ord_Occ,Event_Num,Cast_ID,Date_Time_UTC,Date_Time_PST,Lat_Dec,Lon_Dec,Sta_ID,Line,Sta,Depth,Pressure,PrQ,Temp1,Temp1Q,Temp2,Temp2Q,TempAve,Salt1,Salt1Q,Salt1_Corr,Salt2,Salt2Q,Salt2_Corr,SaltAve_Corr,Ox1,Ox1Q,Ox1_CruiseCorr,Ox1_StaCorr,Ox2,Ox2Q,Ox2_CruiseCorr,Ox2_StaCorr,OxAve_StaCorr,Ox1uM,Ox1uM_CruiseCorr,Ox1uM_StaCorr,Ox2uM,Ox2uM_CruiseCorr,Ox2uM_StaCorr,OxAveuM_StaCorr,FluorV,FluorQ,EstChl_CruiseCorr,EstChl_StaCorr,ISUSV,ISUSQ,EstNO3_CruiseCorr,EstNO3_StaCorr,SigThetaTS1,SigThetaTS1Q,SigThetaTS2,SigThetaTS2Q,BAT,XMiss,TransQ,pH,pHQ,SPAR,SPARQ,PAR,PARQ,PoT1,PoT2,DynHt,SVA,OxSat1,OxSat2,BTL_Depth,BTL_Temp,SaltB,OxB,OxBuM,Chl-a,Phaeo,NO3,NO2,NH4,PO4,SIL
CalCOFI,2007SR,044,46,2007_044d,21-Jul-2020 09:31:31,21-Jul-2020 01:31:31,31.98874,-122.39340,086.7 090.0,086.7,090.0,2.000,2.014,,18.0355,,18.0350,,18.0353,33.2804,,33.2806,33.2808,,33.2824,33.2815,5.3182,,5.5393,5.4886,4.1265,,5.9100,4.2817,4.8852,231.958,241.6529,239.0939,179.978,401.7913,186.0992,212.5966,0.0368,,0.0082,0.0592,0.2763,,0.0000,,23.9469,,23.9473,,0.6886,84.1853,,8.132,,1.9043E+00,,4.8057E-01,,18.0352,18.0347,0.0027,,98.066,76.089,2,18.004,33.2797,5.559,242.71,0.094,0.023,0.0,0.00,0.00,0.27,0.88
CalCOFI,2007SR,044,46,2007_044d,21-Jul-2020 09:31:51,21-Jul-2020 01:31:51,31.98874,-122.39340,086.7 090.0,086.7,090.0,3.000,3.021,,18.0354,,18.0352,,18.0353,33.2805,,33.2807,33.2809,,33.2825,33.2816,5.3164,,5.5374,5.4868,4.1291,,5.9162,4.2875,4.8872,231.878,241.5693,239.0112,180.092,401.5957,186.3680,212.6896,0.0362,,0.0012,0.0564,0.0433,,0.0000,,23.9470,,23.9474,,0.6888,84.1809,,8.131,,1.9043E+00,,3.5448E-01,,18.0349,18.0347,0.0175,,98.032,76.138,,,,,,,,,,,,
CalCOFI,2007SR,044,46,2007_044d,21-Jul-2020 09:31:57,21-Jul-2020 01:31:57,31.98874,-122.39340,086.7 090.0,086.7,090.0,4.000,4.028,,18.0353,,18.0351,,18.0352,33.2806,,33.2808,33.2810,,33.2826,33.2817,5.3145,,5.5354,5.4848,4.1321,,5.9234,4.2941,4.8895,231.796,241.4837,238.9264,180.223,401.3951,186.6768,212.8016,0.0359,,,0.0549,-99.0,,-99.0,,23.9472,,23.9475,,0.6877,84.2056,,8.131,,1.9043E+00,,3.1743E-01,,18.0346,18.0344,0.0234,,97.997,76.193,,,,,,,,,,,,
CalCOFI,2007SR,044,46,2007_044d,21-Jul-2020 09:31:58,21-Jul-2020 01:31:58,31.98874,-122.39340,086.7 090.0,086.7,090.0,5.000,5.035,,18.0360,,18.0358,,18.0359,33.2806,,33.2808,33.2810,,33.2826,33.2817,5.3172,,5.5382,5.4876,4.1324,,5.9241,4.2948,4.8912,231.910,241.6027,239.0443,180.238,401.6739,186.7121,212.8782,0.0357,,,0.0539,0.0007,,0.0000,,23.9470,,23.9474,,0.6884,84.1894,,8.131,,1.9043E+00,,2.8630E-01,,18.0351,18.0349,0.0273,,98.046,76.201,,,,,,,,,,,,
CalCOFI,2007SR,044,46,2007_044d,21-Jul-2020 09:32:01,21-Jul-2020 01:32:01,31.98874,-122.39340,086.7 090.0,086.7,090.0,6.000,6.042,,18.0362,,18.0359,,18.0361,33.2805,,33.2807,33.2810,,33.2826,33.2817,5.3182,,5.5393,5.4886,4.1329,,5.9253,4.2959,4.8923,231.956,241.6508,239.0918,180.258,401.7865,186.7593,212.9256,0.0361,,,0.0559,0.0009,,0.0000,,23.9469,,23.9474,,0.6883,84.1924,,8.131,,1.9043E+00,,2.5733E-01,,18.0352,18.0349,0.0313,,98.066,76.209,,,,,,,,,,,,
CalCOFI,2007SR,044,46,2007_044d,21-Jul-2020 09:32:03,21-Jul-2020 01:32:03,31.98874,-122.39340,086.7 090.0,086.7,090.0,7.000,7.049,,18.0335,,18.0325,,18.0330,33.2808,,33.2810,33.2814,,33.2830,33.2820,5.3213,,5.5425,5.4919,4.1344,,5.9289,4.2992,4.8956,232.092,241.7927,239.2324,180.323,402.1191,186.9125,213.0725,0.0363,,0.0023,0.0568,0.0011,,0.0000,,23.9479,,23.9486,,0.6883,84.1913,,8.131,,1.9043E+00,,2.4900E-01,,18.0324,18.0313,0.0353,,98.119,76.232,,,,,,,,,,,,
CalCOFI,2007SR,044,46,2007_044d,21-Jul-2020 09:32:05,21-Jul-2020 01:32:05,31.98874,-122.39340,086.7 090.0,086.7,090.0,8.000,8.056,,18.0331,,18.0330,,18.0331,33.2809,,33.2811,33.2814,,33.2830,33.2821,5.3213,,5.5425,5.4919,4.1371,,5.9353,4.3052,4.8986,232.092,241.7927,239.2324,180.441,402.1191,187.1907,213.2116,0.0366,,0.0059,0.0583,0.0012,,0.0000,,23.9481,,23.9486,,0.6875,84.2091,,8.131,,1.9043E+00,,2.3976E-01,,18.0318,18.0316,0.0393,,98.118,76.283,,,,,,,,,,,,
CalCOFI,2007SR,044,46,2007_044d,21-Jul-2020 09:32:06,21-Jul-2020 01:32:06,31.98874,-122.39340,086.7 090.0,086.7,090.0,9.000,9.063,,18.0356,,18.0357,,18.0357,33.2807,,33.2809,33.2811,,33.2827,33.2818,5.3181,,5.5392,5.4885,4.1389,,5.9396,4.3092,4.8989,231.951,241.6455,239.0866,180.521,401.7742,187.3792,213.2329,0.0361,,,0.0559,0.0012,,0.0000,,23.9474,,23.9477,,0.6901,84.1542,,8.131,,1.9043E+00,,2.3349E-01,,18.0341,18.0342,0.0433,,98.063,76.320,,,,,,,,,,,,
CalCOFI,2007SR,044,46,2007_044d,21-Jul-2020 09:32:08,21-Jul-2020 01:32:08,31.98874,-122.39340,086.7 090.0,086.7,090.0,10.000,10.070,,18.0334,,18.0343,,18.0339,33.2808,,33.2810,33.2813,,33.2829,33.2820,5.3183,,5.5394,5.4887,4.1387,,5.9391,4.3088,4.8988,231.961,241.6560,239.0970,180.513,401.7987,187.3604,213.2287,0.0352,,,0.0515,0.0012,,0.0000,,23.9481,,23.9482,,0.6879,84.1994,,8.131,,1.9043E+00,,2.2316E-01,,18.0317,18.0326,0.0472,,98.063,76.315,10,18.010,33.2782,5.511,240.64,0.094,0.033,0.0,0.00,0.00,0.27,0.93
CalCOFI,2007SR,044,46,2007_044d,21-Jul-2020 09:32:11,21-Jul-2020 01:32:11,31.98874,-122.39340,086.7 090.0,086.7,090.0,11.000,11.077,,18.0317,,18.0333,,18.0325,33.2811,,33.2813,33.2814,,33.2830,33.2822,5.3176,,5.5387,5.4880,4.1393,,5.9406,4.3101,4.8991,231.932,241.6257,239.0670,180.539,401.7277,187.4217,213.2444,0.0353,,,0.0520,0.0011,,0.0000,,23.9488,,23.9486,,0.6869,84.2200,,8.131,,1.9043E+00,,2.1159E-01,,18.0298,18.0314,0.0512,,98.048,76.324,,,,,,,,,,,,
CalCOFI,2007SR,044,46,2007_044d,21-Jul-2020 09:32:13,21-Jul-2020 01:32:13,31.98874,-122.39340,086.7 090.0,086.7,090.0,12.000,12.085,,18.0320,,18.0315,,18.0318,33.2811,,33.2813,33.2816,,33.2832,33.2823,5.3173,,5.5383,5.4877,4.1414,,5.9456,4.3148,4.9013,231.915,241.6080,239.0494,180.630,401.6862,187.6362,213.3428,0.0360,,,0.0554,0.0010,,0.0000,,23.9487,,23.9492,,0.6879,84.2014,,8.131,,1.9043E+00,,2.1063E-01,,18.0300,18.0295,0.0552,,98.042,76.361,,,,,,,,,,,,
CalCOFI,2007SR,044,46,2007_044d,21-Jul-2020 09:32:15,21-Jul-2020 01:32:15,31.98874,-122.39340,086.7 090.0,086.7,090.0,13.000,13.092,,18.0276,,18.0273,,18.0275,33.2813,,33.2815,33.2818,,33.2834,33.2825,5.3164,,5.5374,5.4868,4.1455,,5.9554,4.3239,4.9054,231.876,241.5673,239.0091,180.807,401.5908,188.0534,213.5313,0.0362,,0.0012,0.0564,0.0009,,0.0000,,23.9499,,23.9504,,0.6872,84.2142,,8.131,,1.9043E+00,,1.9831E-01,,18.0254,18.0250,0.0592,,98.017,76.429,,,,,,,,,,,,
CalCOFI,2007SR,044,46,2007_044d,21-Jul-2020 09:32:17,21-Jul-2020 01:32:17,31.98874,-122.39340,086.7 090.0,086.7,090.0,14.000,14.099,,18.0208,,18.0210,,18.0209,33.2819,,33.2821,33.2824,,33.2840,33.2831,5.3225,,5.5438,5.4931,4.1457,,5.9558,4.3244,4.9088,232.144,241.8470,239.2862,180.817,402.2463,188.0770,213.6816,0.0358,,,0.0544,0.0007,,0.0000,,23.9521,,23.9525,,0.6885,84.1883,,8.131,,1.9043E+00,,1.9291E-01,,18.0185,18.0186,0.0632,,98.118,76.425,,,,,,,,,,,,
CalCOFI,2007SR,044,46,2007_044d,21-Jul-2020 09:32:19,21-Jul-2020 01:32:19,31.98874,-122.39340,086.7 090.0,086.7,090.0,15.000,15.106,,18.0100,,18.0093,,18.0097,33.2825,,33.2827,33.2831,,33.2847,33.2837,5.3279,,5.5494,5.4987,4.1472,,5.9594,4.3277,4.9132,232.378,242.0913,239.5282,180.880,402.8186,188.2255,213.8769,0.0360,,,0.0554,0.0005,,0.0000,,23.9553,,23.9559,,0.6940,84.0724,,8.131,,1.9043E+00,,1.8407E-01,,18.0074,18.0068,0.0671,,98.198,76.435,,,,,,,,,,,,
CalCOFI,2007SR,044,46,2007_044d,21-Jul-2020 09:32:21,21-Jul-2020 01:32:21,31.98874,-122.39340,086.7 090.0,086.7,090.0,16.000,16.113,,17.9986,,17.9981,,17.9984,33.2834,,33.2836,33.2841,,33.2857,33.2847,5.3239,,5.5452,5.4945,4.1487,,5.9630,4.3310,4.9128,232.201,241.9065,239.3451,180.944,402.3857,188.3764,213.8608,0.0359,,,0.0549,0.0003,,0.0000,,23.9588,,23.9594,,0.6873,84.2127,,8.131,,1.9043E+00,,1.7905E-01,,17.9959,17.9954,0.0711,,98.103,76.447,,,,,,,,,,,,
CalCOFI,2007SR,044,46,2007_044d,21-Jul-2020 09:32:23,21-Jul-2020 01:32:23,31.98874,-122.39340,086.7 090.0,086.7,090.0,17.000,17.120,,17.9685,,17.9691,,17.9688,33.2855,,33.2857,33.2856,,33.2872,33.2865,5.3344,,5.5562,5.5054,4.1521,,5.9711,4.3386,4.9220,232.657,242.3825,239.8166,181.094,403.5010,188.7299,214.2733,0.0362,,0.0012,0.0564,0.0023,,0.0000,,23.9678,,23.9676,,0.6879,84.2001,,8.131,,1.9043E+00,,1.6210E-01,,17.9656,17.9663,0.0751,,98.241,76.469,,,,,,,,,,,,
CalCOFI,2007SR,044,46,2007_044d,21-Jul-2020 09:32:25,21-Jul-2020 01:32:25,31.98874,-122.39340,086.7 090.0,086.7,090.0,18.000,18.127,,17.9356,,17.9310,,17.9333,33.2876,,33.2878,33.2886,,33.2902,33.2890,5.3308,,5.5525,5.5017,4.1599,,5.9897,4.3560,4.9289,232.499,242.2176,239.6533,181.431,403.1146,189.5243,214.5888,0.0374,,0.0152,0.0621,0.0137,,0.0000,,23.9774,,23.9793,,0.6882,84.1931,,8.131,,1.9043E+00,,1.6221E-01,,17.9325,17.9280,0.0790,,98.115,76.559,,,,,,,,,,,,
CalCOFI,2007SR,044,46,2007_044d,21-Jul-2020 09:32:27,21-Jul-2020 01:32:27,31.98874,-122.39340,086.7 090.0,086.7,090.0,19.000,19.134,,17.8787,,17.8791,,17.8789,33.2920,,33.2922,33.2920,,33.2936,33.2929,5.3456,,5.5679,5.5170,4.1642,,6.0000,4.3655,4.9413,233.138,242.8847,240.3140,181.616,404.6775,189.9604,215.1372,0.0374,,0.0152,0.0621,0.0347,,0.0000,,23.9946,,23.9946,,0.6890,84.1765,,8.131,,1.9043E+00,,1.5271E-01,,17.8754,17.8759,0.0830,,98.283,76.563,,,,,,,,,,,,
CalCOFI,2007SR,044,46,2007_044d,21-Jul-2020 09:32:29,21-Jul-2020 01:32:29,31.98874,-122.39340,086.7 090.0,086.7,090.0,20.000,20.141,,17.7884,,17.7866,,17.7875,33.2968,,33.2970,33.2970,,33.2986,33.2978,5.3639,,5.5870,5.5359,4.1751,,6.0260,4.3898,4.9629,233.931,243.7125,241.1339,182.084,406.6170,191.0636,216.0988,0.0389,,0.0329,0.0693,0.0627,,0.0000,,24.0202,,24.0208,,0.6908,84.1394,,8.132,,1.9043E+00,,1.4560E-01,,17.7850,17.7833,0.0869,,98.453,76.630,,,,,,,,,,,,
CalCOFI,2007SR,044,46,2007_044d,21-Jul-2020 09:32:31,21-Jul-2020 01:32:31,31.98874,-122.39340,086.7 090.0,086.7,090.0,21.000,21.148,,17.6475,,17.6551,,17.6513,33.3068,,33.3070,33.3069,,33.3085,33.3078,5.3896,,5.6139,5.5625,4.1865,,6.0532,4.4151,4.9888,235.045,244.8754,242.2858,182.577,409.3417,192.2258,217.2558,0.0389,,0.0329,0.0693,0.0964,,0.0000,,24.0619,,24.0601,,0.6898,84.1605,,8.134,,1.9043E+00,,1.3748E-01,,17.6440,17.6516,0.0908,,98.666,76.653,,,,,,,,,,,,
CalCOFI,2007SR,044,46,2007_044d,21-Jul-2020 09:32:34,21-Jul-2020 01:32:34,31.98874,-122.39340,086.7 090.0,086.7,090.0,22.000,22.156,,17.5607,,17.5617,,17.5612,33.3122,,33.3124,33.3130,,33.3146,33.3135,5.4019,,5.6267,5.5752,4.1946,,6.0726,4.4331,5.0042,235.577,245.4307,242.8359,182.922,410.6429,193.0390,217.9375,0.0382,,0.0246,0.0659,0.1234,,0.0000,,24.0870,,24.0873,,0.6920,84.1138,,8.136,,1.9043E+00,,1.3187E-01,,17.5570,17.5580,0.0947,,98.731,76.666,,,,,,,,,,,,
CalCOFI,2007SR,044,46,2007_044d,21-Jul-2020 09:32:35,21-Jul-2020 01:32:35,31.98874,-122.39340,086.7 090.0,086.7,090.0,23.000,23.163,,17.5562,,17.5565,,17.5564,33.3162,,33.3164,33.3170,,33.3186,33.3175,5.3975,,5.6221,5.5707,4.1968,,6.0778,4.4380,5.0044,235.383,245.2282,242.6353,183.019,410.1684,193.2677,217.9515,0.0394,,0.0387,0.0716,0.1284,,0.0000,,24.0911,,24.0917,,0.6929,84.0955,,8.137,,1.9043E+00,,1.2115E-01,,17.5523,17.5526,0.0985,,98.644,76.700,,,,,,,,,,,,
CalCOFI,2007SR,044,46,2007_044d,21-Jul-2020 09:32:37,21-Jul-2020 01:32:37,31.98874,-122.39340,086.7 090.0,086.7,090.0,24.000,24.170,,17.5499,,17.5494,,17.5497,33.3157,,33.3159,33.3162,,33.3178,33.3169,5.4046,,5.6296,5.5780,4.2014,,6.0888,4.4483,5.0132,235.691,245.5497,242.9538,183.220,410.9217,193.7415,218.3477,0.0391,,0.0352,0.0702,0.1241,,0.0000,,24.0923,,24.0928,,0.6930,84.0933,,8.136,,1.9043E+00,,1.2303E-01,,17.5459,17.5454,0.1024,,98.762,76.774,,,,,,,,,,,,
CalCOFI,2007SR,044,46,2007_044d,21-Jul-2020 09:32:39,21-Jul-2020 01:32:39,31.98874,-122.39339,086.7 090.0,086.7,090.0,25.000,25.177,,17.5479,,17.5482,,17.5481,33.3195,,33.3197,33.3210,,33.3226,33.3212,5.3953,,5.6198,5.5684,4.2007,,6.0871,4.4467,5.0076,235.284,245.1249,242.5329,183.190,409.9263,193.6708,218.1019,0.0420,,0.0693,0.0839,0.1119,,0.0000,,24.0957,,24.0968,,0.6932,84.0879,,8.136,,1.9043E+00,,1.2278E-01,,17.5438,17.5440,0.1062,,98.590,76.762,25,17.474,33.3141,5.643,246.36,0.128,0.034,0.0,0.031,0.12,0.26,0.83
CalCOFI,2007SR,044,46,2007_044d,21-Jul-2020 09:32:41,21-Jul-2020 01:32:41,31.98874,-122.39338,086.7 090.0,086.7,090.0,26.000,26.184,,17.5588,,17.5586,,17.5587,33.3248,,33.3250,33.3256,,33.3272,33.3261,5.3985,,5.6232,5.5717,4.2003,,6.0862,4.4458,5.0088,235.424,245.2710,242.6777,183.171,410.2687,193.6260,218.1519,0.0415,,0.0634,0.0815,0.0928,,0.0000,,24.0972,,24.0979,,0.6930,84.0925,,8.136,,1.9043E+00,,1.1011E-01,,17.5545,17.5543,0.1101,,98.673,76.772,,,,,,,,,,,,
CalCOFI,2007SR,044,46,2007_044d,21-Jul-2020 09:32:43,21-Jul-2020 01:32:43,31.98874,-122.39338,086.7 090.0,086.7,090.0,27.000,27.191,,17.5375,,17.5374,,17.5375,33.3214,,33.3216,33.3224,,33.3240,33.3228,5.4032,,5.6281,5.5766,4.2066,,6.1012,4.4598,5.0182,235.627,245.4829,242.8876,183.446,410.7652,194.2742,218.5809,0.0408,,0.0552,0.0783,0.0572,,0.0000,,24.0997,,24.1005,,0.6941,84.0707,,8.136,,1.9043E+00,,1.0447E-01,,17.5330,17.5329,0.1139,,98.715,76.855,,,,,,,,,,,,
CalCOFI,2007SR,044,46,2007_044d,21-Jul-2020 09:32:46,21-Jul-2020 01:32:46,31.98872,-122.39340,086.7 090.0,086.7,090.0,28.000,28.198,,17.4693,,17.4754,,17.4724,33.3085,,33.3087,33.3120,,33.3136,33.3112,5.4094,,5.6346,5.5830,4.2129,,6.1163,4.4738,5.0284,235.896,245.7637,243.1657,183.720,411.4231,194.9201,219.0429,0.0430,,0.0810,0.0886,0.0191,,0.0000,,24.1062,,24.1075,,0.6967,84.0141,,8.138,,1.9043E+00,,9.2294E-02,,17.4647,17.4707,0.1177,,98.692,76.874,,,,,,,,,,,,
CalCOFI,2007SR,044,46,2007_044d,21-Jul-2020 09:32:47,21-Jul-2020 01:32:47,31.98873,-122.39340,086.7 090.0,086.7,090.0,29.000,29.205,,17.4416,,17.4400,,17.4408,33.3043,,33.3045,33.3045,,33.3061,33.3053,5.4199,,5.6456,5.5938,4.2191,,6.1311,4.4876,5.0407,236.355,246.2429,243.6404,183.987,412.5458,195.5495,219.5950,0.0480,,0.1397,0.1116,0.0054,,0.0000,,24.1097,,24.1102,,0.6978,83.9911,,8.137,,1.9043E+00,,7.7612E-02,,17.4368,17.4351,0.1216,,98.830,76.930,,,,,,,,,,,,
CalCOFI,2007SR,044,46,2007_044d,21-Jul-2020 09:32:49,21-Jul-2020 01:32:49,31.98874,-122.39339,086.7 090.0,086.7,090.0,30.000,30.213,,17.3978,,17.3957,,17.3968,33.2945,,33.2947,33.2948,,33.2964,33.2956,5.4279,,5.6539,5.6021,4.2257,,6.1468,4.5023,5.0522,236.704,246.6072,244.0012,184.274,413.3994,196.2260,220.1136,0.0487,,0.1479,0.1148,0.0010,,0.0000,,24.1127,,24.1134,,0.6973,84.0024,,8.137,,1.9043E+00,,7.6388E-02,,17.3928,17.3907,0.1254,,98.887,76.981,,,,,,,,,,,,
CalCOFI,2007SR,044,46,2007_044d,21-Jul-2020 09:32:51,21-Jul-2020 01:32:51,31.98872,-122.39338,086.7 090.0,086.7,090.0,31.000,31.220,,17.3647,,17.3689,,17.3668,33.2904,,33.2906,33.2924,,33.2940,33.2923,5.4292,,5.6553,5.6034,4.2273,,6.1506,4.5059,5.0547,236.756,246.6615,244.0550,184.346,413.5266,196.3958,220.2254,0.0462,,0.1186,0.1034,0.0002,,0.0000,,24.1174,,24.1180,,0.6971,84.0074,,8.137,,1.9043E+00,,7.0258E-02,,17.3595,17.3637,0.1292,,98.844,76.970,,,,,,,,,,,,
CalCOFI,2007SR,044,46,2007_044d,21-Jul-2020 09:32:54,21-Jul-2020 01:32:54,31.98873,-122.39338,086.7 090.0,086.7,090.0,32.000,32.227,,17.3539,,17.3578,,17.3559,33.2901,,33.2903,33.2918,,33.2934,33.2919,5.4289,,5.6550,5.6031,4.2289,,6.1545,4.5094,5.0563,236.743,246.6479,244.0415,184.413,413.4948,196.5537,220.2976,0.0462,,0.1186,0.1034,0.0002,,0.0000,,24.1198,,24.1202,,0.6975,83.9970,,8.137,,1.9043E+00,,5.5574E-02,,17.3485,17.3525,0.1331,,98.818,76.982,,,,,,,,,,,,
CalCOFI,2007SR,044,46,2007_044d,21-Jul-2020 09:32:56,21-Jul-2020 01:32:56,31.98872,-122.39338,086.7 090.0,086.7,090.0,33.000,33.234,,17.3711,,17.3741,,17.3726,33.3096,,33.3098,33.3115,,33.3131,33.3115,5.4233,,5.6491,5.5973,4.2275,,6.1511,4.5063,5.0518,236.497,246.3911,243.7872,184.352,412.8931,196.4099,220.0986,0.0500,,0.1632,0.1207,0.0002,,0.0000,,24.1307,,24.1314,,0.7010,83.9245,,8.136,,1.9043E+00,,4.5323E-02,,17.3656,17.3687,0.1369,,98.761,76.990,,,,,,,,,,,,
CalCOFI,2007SR,044,46,2007_044d,21-Jul-2020 09:32:57,21-Jul-2020 01:32:57,31.98872,-122.39338,086.7 090.0,086.7,090.0,34.000,34.241,,17.3699,,17.3655,,17.3677,33.3125,,33.3127,33.3121,,33.3137,33.3132,5.4227,,5.6485,5.5967,4.2288,,6.1542,4.5092,5.0530,236.472,246.3650,243.7613,184.406,412.8319,196.5372,220.1493,0.0559,,0.2325,0.1470,0.0002,,0.0000,,24.1333,,24.1340,,0.7024,83.8961,,8.135,,1.9043E+00,,3.8302E-02,,17.3642,17.3598,0.1407,,98.750,77.001,,,,,,,,,,,,
CalCOFI,2007SR,044,46,2007_044d,21-Jul-2020 09:32:59,21-Jul-2020 01:32:59,31.98872,-122.39338,086.7 090.0,086.7,090.0,35.000,35.249,,17.3580,,17.3573,,17.3577,33.3119,,33.3121,33.3126,,33.3142,33.3132,5.4169,,5.6424,5.5907,4.2300,,6.1571,4.5119,5.0513,236.219,246.1009,243.4997,184.458,412.2131,196.6598,220.0798,0.0574,,0.2502,0.1536,0.0001,,0.0000,,24.1357,,24.1364,,0.7030,83.8837,,8.136,,1.9043E+00,,3.8574E-02,,17.3522,17.3515,0.1445,,98.622,77.011,,,,,,,,,,,,
CalCOFI,2007SR,044,46,2007_044d,21-Jul-2020 09:33:01,21-Jul-2020 01:33:01,31.98872,-122.39338,086.7 090.0,086.7,090.0,36.000,36.256,,17.3540,,17.3551,,17.3546,33.3122,,33.3124,33.3133,,33.3149,33.3137,5.4231,,5.6489,5.5971,4.2307,,6.1588,4.5134,5.0553,236.488,246.3817,243.7779,184.488,412.8711,196.7305,220.2542,0.0550,,0.2220,0.1430,0.0001,,0.0000,,24.1369,,24.1375,,0.7044,83.8543,,8.135,,1.9043E+00,,3.3534E-02,,17.3480,17.3492,0.1483,,98.727,77.021,,,,,,,,,,,,
CalCOFI,2007SR,044,46,2007_044d,21-Jul-2020 09:33:03,21-Jul-2020 01:33:03,31.98872,-122.39338,086.7 090.0,086.7,090.0,37.000,37.263,,17.2708,,17.2821,,17.2765,33.2938,,33.2940,33.2978,,33.2994,33.2967,5.4351,,5.6614,5.6095,4.2394,,6.1795,4.5328,5.0712,237.008,246.9246,244.3156,184.867,414.1429,197.6239,220.9698,0.0539,,0.2090,0.1382,-99.0,,-99.0,,24.1426,,24.1429,,0.7035,83.8717,,8.136,,1.9043E+00,,2.0296E-02,,17.2647,17.2760,0.1521,,98.775,77.064,,,,,,,,,,,,
CalCOFI,2007SR,044,46,2007_044d,21-Jul-2020 09:33:06,21-Jul-2020 01:33:06,31.98872,-122.39338,086.7 090.0,086.7,090.0,38.000,38.270,,17.2262,,17.2327,,17.2295,33.2828,,33.2830,33.2851,,33.2867,33.2849,5.4439,,5.6706,5.6186,4.2423,,6.1864,4.5392,5.0789,237.395,247.3285,244.7157,184.996,415.0895,197.9280,221.3219,0.0549,,0.2208,0.1426,5.7497E-08,,0.0000,,24.1447,,24.1450,,0.7036,83.8712,,8.136,,1.9043E+00,,1.6723E-02,,17.2200,17.2264,0.1559,,98.846,77.039,,,,,,,,,,,,
CalCOFI,2007SR,044,46,2007_044d,21-Jul-2020 09:33:08,21-Jul-2020 01:33:08,31.98872,-122.39338,086.7 090.0,086.7,090.0,39.000,39.277,,17.2294,,17.2303,,17.2299,33.2886,,33.2888,33.2900,,33.2916,33.2902,5.4304,,5.6565,5.6047,4.2435,,6.1893,4.5419,5.0733,236.802,246.7095,244.1025,185.046,413.6391,198.0458,221.0742,0.0594,,0.2737,0.1623,-99.0,,-99.0,,24.1485,,24.1494,,0.7044,83.8535,,8.135,,1.9043E+00,,6.0257E-03,,17.2230,17.2239,0.1597,,98.609,77.058,,,,,,,,,,,,
CalCOFI,2007SR,044,46,2007_044d,21-Jul-2020 09:33:09,21-Jul-2020 01:33:09,31.98872,-122.39338,086.7 090.0,086.7,090.0,40.000,40.285,,17.2391,,17.2393,,17.2392,33.2934,,33.2936,33.2943,,33.2959,33.2948,5.4322,,5.6584,5.6065,4.2420,,6.1857,4.5386,5.0726,236.883,246.7941,244.1863,184.982,413.8372,197.8950,221.0407,0.0615,,0.2984,0.1713,-99.0,,-99.0,,24.1499,,24.1506,,0.7041,83.8593,,8.135,,1.9043E+00,,5.6601E-03,,17.2325,17.2327,0.1635,,98.664,77.047,40,17.357,33.3490,,246.24,0.226,0.063,0.0,0.00,0.00,0.26,0.78
CalCOFI,2007SR,044,46,2007_044d,21-Jul-2020 09:33:11,21-Jul-2020 01:33:11,31.98872,-122.39338,086.7 090.0,086.7,090.0,41.000,41.292,,17.2315,,17.2342,,17.2329,33.2941,,33.2943,33.2949,,33.2965,33.2954,5.4237,,5.6495,5.5978,4.2435,,6.1893,4.5419,5.0699,236.511,246.4057,243.8017,185.044,412.9273,198.0411,220.9214,0.0579,,0.2560,0.1558,-99.0,,-99.0,,24.1523,,24.1523,,0.7046,83.8504,,8.134,,1.9043E+00,,4.7711E-03,,17.2247,17.2274,0.1673,,98.495,77.066,,,,,,,,,,,,
CalCOFI,2007SR,044,46,2007_044d,21-Jul-2020 09:33:14,21-Jul-2020 01:33:14,31.98872,-122.39338,086.7 090.0,086.7,090.0,42.000,42.299,,17.2357,,17.2350,,17.2354,33.3002,,33.3004,33.3001,,33.3017,33.3011,5.4311,,5.6573,5.6054,4.2439,,6.1903,4.5428,5.0741,236.834,246.7429,244.1356,185.064,413.7173,198.0883,221.1120,0.0579,,0.2560,0.1558,-99.0,,-99.0,,24.1560,,24.1561,,0.7030,83.8828,,8.134,,1.9043E+00,,-5.916E-05,,17.2287,17.2281,0.1711,,98.641,77.078,,,,,,,,,,,,
CalCOFI,2007SR,044,46,2007_044d,21-Jul-2020 09:33:16,21-Jul-2020 01:33:16,31.98872,-122.39338,086.7 090.0,086.7,090.0,43.000,43.306,,17.2317,,17.2319,,17.2318,33.3055,,33.3057,33.3058,,33.3074,33.3066,5.4526,,5.6797,5.6276,4.2419,,6.1855,4.5383,5.0830,237.770,247.7200,245.1035,184.975,416.0067,197.8785,221.4910,0.0627,,0.3125,0.1764,-99.0,,-99.0,,24.1611,,24.1612,,0.7047,83.8473,,8.134,,1.9043E+00,,1.0000E-12,,17.2246,17.2248,0.1749,,99.027,77.040,,,,,,,,,,,,
CalCOFI,2007SR,044,46,2007_044d,21-Jul-2020 09:33:18,21-Jul-2020 01:33:18,31.98872,-122.39338,086.7 090.0,086.7,090.0,44.000,44.313,,17.1935,,17.1968,,17.1952,33.3328,,33.3330,33.3265,,33.3281,33.3306,5.4780,,5.7063,5.6539,4.2487,,6.2017,4.5535,5.1037,238.870,248.8683,246.2408,185.267,418.6971,198.5668,222.4038,0.0689,,0.3854,0.2024,-99.0,,-99.0,,24.1911,,24.1855,,0.7063,83.8127,,8.134,,1.9043E+00,,1.0000E-12,,17.1863,17.1895,0.1787,,99.432,77.120,,,,,,,,,,,,
CalCOFI,2007SR,044,46,2007_044d,21-Jul-2020 09:33:20,21-Jul-2020 01:33:20,31.98872,-122.39338,086.7 090.0,086.7,090.0,45.000,45.321,,17.0878,,17.1035,,17.0957,33.3471,,33.3473,33.3463,,33.3479,33.3476,5.5222,,5.7524,5.6996,4.2599,,6.2285,4.5784,5.1390,240.790,250.8726,248.2261,185.748,423.3932,199.7006,223.9634,0.0717,,0.4183,0.2138,-99.0,,-99.0,,24.2270,,24.2227,,0.7111,83.7131,,8.137,,1.9043E+00,,1.0000E-12,,17.0804,17.0961,0.1824,,100.039,77.194,,,,,,,,,,,,
CalCOFI,2007SR,044,46,2007_044d,21-Jul-2020 09:33:21,21-Jul-2020 01:33:21,31.98872,-122.39338,086.7 090.0,086.7,090.0,46.000,46.328,,16.9543,,16.9573,,16.9558,33.3565,,33.3567,33.3576,,33.3592,33.3580,5.5503,,5.7818,5.7287,4.2726,,6.2588,4.6066,5.1677,242.005,252.1409,249.4824,186.294,426.3649,200.9877,225.2351,0.0746,,0.4524,0.2255,-99.0,,-99.0,,24.2656,,24.2658,,0.7171,83.5872,,8.139,,1.9043E+00,,1.0000E-12,,16.9468,16.9498,0.1861,,100.295,77.212,,,,,,,,,,,,
CalCOFI,2007SR,044,46,2007_044d,21-Jul-2020 09:33:24,21-Jul-2020 01:33:24,31.98872,-122.39338,086.7 090.0,086.7,090.0,47.000,47.335,,16.8832,,16.8923,,16.8878,33.3714,,33.3716,33.3712,,33.3728,33.3722,5.5541,,5.7858,5.7326,4.2787,,6.2733,4.6202,5.1764,242.164,252.3069,249.6468,186.557,426.7538,201.6077,225.6273,0.0731,,0.4347,0.2195,-99.0,,-99.0,,24.2938,,24.2915,,0.7177,83.5757,,8.140,,1.9043E+00,,1.0000E-12,,16.8755,16.8846,0.1898,,100.235,77.232,,,,,,,,,,,,
CalCOFI,2007SR,044,46,2007_044d,21-Jul-2020 09:33:26,21-Jul-2020 01:33:26,31.98872,-122.39338,086.7 090.0,086.7,090.0,48.000,48.342,,16.8639,,16.8688,,16.8664,33.3743,,33.3745,33.3746,,33.3762,33.3754,5.5858,,5.8189,5.7654,4.2894,,6.2989,4.6440,5.2047,243.544,253.7475,251.0737,187.021,430.1290,202.7014,226.8876,0.0728,,0.4312,0.2183,-99.0,,-99.0,,24.3006,,24.2997,,0.7173,83.5840,,8.140,,1.9043E+00,,1.0000E-12,,16.8561,16.8610,0.1935,,100.771,77.391,,,,,,,,,,,,
CalCOFI,2007SR,044,46,2007_044d,21-Jul-2020 09:33:28,21-Jul-2020 01:33:28,31.98872,-122.39338,086.7 090.0,086.7,090.0,49.000,49.350,,16.6873,,16.6973,,16.6923,33.3711,,33.3713,33.3735,,33.3751,33.3732,5.6366,,5.8720,5.8179,4.3098,,6.3476,4.6894,5.2537,245.749,256.0493,253.3537,187.903,435.5222,204.7805,229.0671,0.0754,,0.4618,0.2287,0.0012,,0.0000,,24.3392,,24.3387,,0.7176,83.5766,,8.141,,1.9043E+00,,1.0000E-12,,16.6794,16.6894,0.1971,,101.338,77.501,,,,,,,,,,,,
CalCOFI,2007SR,044,46,2007_044d,21-Jul-2020 09:33:30,21-Jul-2020 01:33:30,31.98872,-122.39338,086.7 090.0,086.7,090.0,50.000,50.357,,16.5242,,16.5331,,16.5287,33.3786,,33.3788,33.3793,,33.3809,33.3799,5.6460,,5.8818,5.8276,4.3259,,6.3860,4.7252,5.2764,246.149,256.4668,253.7673,188.594,436.5005,206.4094,230.0884,0.0754,,0.4618,0.2287,0.0114,,0.0000,,24.3828,,24.3812,,0.7197,83.5336,,8.141,,1.9043E+00,,1.0000E-12,,16.5162,16.5251,0.2007,,101.191,77.544,50,15.787,33.3871,,262.06,0.284,0.091,0.0,0.00,0.00,0.26,1.04